Home > Weather > San Luis Obispo > Past weeks

Flag for USA Past Weather in San Luis Obispo, California, USA — Yesterday and Last 2 Weeks

Now
60 °F

Sunny.


Feels Like: 60 °F
Forecast: 59 / 88 °F
Wind: 8 mph from West

Location: San Luis Obispo County-Mc Chesney Field

Current Time: Jun 25, 2016 at 9:43:44 PM

Latest Report: Jun 25, 2016 at 8:56 PM


Visibility: 9 mi

Pressure: 29.87 "Hg

Humidity: 72%

Dew Point: 51 °F

Location of San Luis ObispoLocation

Past Weather in San Luis Obispo — Graph

°F

San Luis Obispo Temperature Yesterday

Maximum temperature yesterday: 77 °F (at 1:56 PM)
Minimum temperature yesterday: 55 °F (at 9:56 PM)
Average temperature yesterday: 64 °F

High & Low Weather Summary for the Past Weeks

 TemperatureHumidityPressure
High97 °F (Jun 23, 11:56 AM)93% (Jun 18, 4:56 AM)30.13 "Hg (Jun 18, 4:56 AM)
Low48 °F (Jun 16, 4:56 AM)10% (Jun 23, 11:56 AM)29.85 "Hg (Jun 25, 3:56 PM)
Average66 °F62%29.99 "Hg
* Reported Jun 10 7:56 PM — Jun 25 7:56 PM, San Luis Obispo, Weather by CustomWeather, © 2016

Note: Actual official high and low records may vary slightly from our data, if they occured in-between our weather recording intervals... More about our weather records

Advertising

San Luis Obispo Weather History for the Previous 24 Hours

Scroll right to see more
 ConditionsComfort  
Time TempWeatherWind HumidityBarometerVisibility
7:56 PM
Sat, Jun 25
65 °FSunny.9 mph61%29.86 "Hg9 mi
6:56 PM66 °FSunny.15 mph59%29.85 "Hg9 mi
5:56 PM73 °FSunny.14 mph46%29.85 "Hg10 mi
4:56 PM76 °FSunny.20 mph42%29.85 "Hg10 mi
3:56 PM80 °FSunny.22 mph35%29.85 "Hg10 mi
2:56 PM81 °FSunny.21 mph33%29.86 "Hg10 mi
1:56 PM82 °FSunny.21 mph32%29.87 "Hg10 mi
12:56 PM80 °FSunny.20 mph38%29.87 "Hg10 mi
11:56 AM87 °FSunny.21 mph29%29.87 "Hg10 mi
10:56 AM94 °FSunny.13 mph18%29.88 "Hg10 mi
9:56 AM91 °FSunny.12 mph18%29.89 "Hg10 mi
8:56 AM84 °FSunny.9 mph26%29.91 "Hg10 mi
7:56 AM69 °FSunny.No wind53%29.90 "Hg10 mi
6:56 AM57 °FSunny.5 mph78%29.90 "Hg9 mi
5:56 AM52 °FClear.3 mph86%29.90 "Hg7 mi
4:56 AM54 °FClear.3 mph83%29.90 "Hg8 mi
3:56 AM54 °FClear.3 mph83%29.90 "Hg9 mi
2:56 AM54 °FClear.No wind83%29.92 "Hg8 mi
1:56 AM54 °FClear.No wind80%29.92 "Hg9 mi
12:56 AM54 °FClear.No wind83%29.93 "Hg9 mi
11:56 PM
Fri, Jun 24
55 °FClear.No wind80%29.94 "Hg9 mi
10:56 PM55 °FClear.N/A83%29.95 "Hg9 mi
9:56 PM55 °FClear.8 mph83%29.94 "Hg9 mi
Weather by CustomWeather, © 2016

See weather overviewHow to use our weather pages